{"data":{"norad_id":45100,"intl_designator":"2020-006BJ","name":"STARLINK-1193","alt_names":[],"object_type":"PAYLOAD","status":"ACTIVE","operator":null,"country":"US","launch_date":"2020-01-29","launch_site_code":"AFETR","launch_vehicle":null,"mission":null,"orbit_class":"UNKNOWN","rcs_meters":null,"size_class":null,"mass_kg":null,"dimensions":null,"purposes":["comms"],"wikipedia_slug":null,"has_3d_model":false,"image_url":null,"decayed_at":null,"tle_current":{"epoch":"2026-05-24T22:24:07.013664Z","epoch_age_seconds":91052,"freshness":"FRESH","line1":"1 45100U 20006BJ  26144.93341451  .00042781  00000+0  40786-3 0  9994","line2":"2 45100  53.0469 218.0971 0003775 289.7439  70.3169 15.66369227349167","mean_motion":15.66369227,"eccentricity":0.0003775,"inclination_deg":53.0469,"raan_deg":218.0971,"arg_perigee_deg":289.7439,"mean_anomaly_deg":70.3169,"bstar":0.00040786,"rev_number":34916,"period_min":91.932347442625,"perigee_km":366.75659249453,"apogee_km":371.85091026182,"semimajor_km":6747.4407513782,"source":"CELESTRAK","updated_at":"2026-05-25T13:38:16.380979Z"}}}